Radiation Dose at Monitoring Post of Fukushima Daini Nuclear Power Station
Date,Time,MP-1(microSv/h),MP-2(microSv/h),MP-3(microSv/h),MP-4(microSv/h),MP-5(microSv/h),MP-6(microSv/h),MP-7(microSv/h),Wind Direction,Wind Velocity(m/s),Rain
2020/01/23,00:00,0.184,0.164,0.278,0.257,0.254,0.141,0.087,north-northeast,1.1,No
2020/01/23,00:10,0.183,0.164,0.279,0.260,0.254,0.141,0.087,north-northeast,1.2,No
2020/01/23,00:20,0.183,0.164,0.278,0.259,0.256,0.141,0.088,north-northeast,2.5,No
2020/01/23,00:30,0.184,0.164,0.278,0.258,0.255,0.142,0.087,north,2.3,No
2020/01/23,00:40,0.183,0.164,0.278,0.257,0.254,0.143,0.087,north,1.8,No
2020/01/23,00:50,0.183,0.163,0.278,0.258,0.255,0.142,0.087,north-northeast,2.1,No
2020/01/23,01:00,0.184,0.164,0.277,0.258,0.253,0.141,0.087,north,2.0,No
2020/01/23,01:10,0.185,0.163,0.277,0.257,0.255,0.141,0.087,north-northeast,1.0,No
2020/01/23,01:20,0.183,0.163,0.278,0.258,0.254,0.141,0.087,north-northwest,1.1,No
2020/01/23,01:30,0.183,0.164,0.278,0.260,0.254,0.142,0.087,north-northwest,2.2,No
2020/01/23,01:40,0.182,0.165,0.278,0.258,0.254,0.142,0.087,west-northwest,1.5,No
2020/01/23,01:50,0.183,0.164,0.278,0.259,0.254,0.143,0.087,northwest,2.7,No
2020/01/23,02:00,0.184,0.165,0.278,0.257,0.255,0.142,0.087,west-northwest,4.8,No
2020/01/23,02:10,0.183,0.164,0.277,0.258,0.254,0.141,0.087,west-northwest,5.0,No
2020/01/23,02:20,0.184,0.164,0.278,0.259,0.254,0.141,0.087,west-northwest,5.2,No
2020/01/23,02:30,0.182,0.163,0.277,0.257,0.255,0.141,0.087,west-northwest,4.9,No
2020/01/23,02:40,0.182,0.163,0.277,0.258,0.255,0.141,0.087,west-northwest,4.9,No
2020/01/23,02:50,0.183,0.164,0.278,0.259,0.254,0.142,0.087,west-northwest,5.1,No
2020/01/23,03:00,0.185,0.164,0.277,0.257,0.254,0.142,0.086,west-northwest,5.3,No
2020/01/23,03:10,0.182,0.164,0.276,0.259,0.254,0.141,0.087,west-northwest,4.5,No
2020/01/23,03:20,0.183,0.164,0.278,0.258,0.253,0.140,0.087,west-northwest,2.7,No
2020/01/23,03:30,0.183,0.164,0.278,0.258,0.254,0.141,0.087,west,1.3,No
2020/01/23,03:40,0.183,0.163,0.277,0.258,0.254,0.141,0.087,west,2.4,No
2020/01/23,03:50,0.182,0.163,0.277,0.258,0.254,0.141,0.086,west-northwest,4.1,No
2020/01/23,04:00,0.184,0.164,0.278,0.257,0.254,0.141,0.086,west-northwest,2.4,No
2020/01/23,04:10,0.182,0.163,0.277,0.258,0.253,0.141,0.087,west-northwest,1.6,No
2020/01/23,04:20,0.182,0.164,0.276,0.257,0.255,0.140,0.086,west,2.2,No
2020/01/23,04:30,0.183,0.163,0.277,0.257,0.253,0.141,0.087,west,2.1,No
2020/01/23,04:40,0.183,0.163,0.277,0.257,0.254,0.142,0.087,west,1.7,No
2020/01/23,04:50,0.183,0.163,0.276,0.259,0.255,0.141,0.086,north-northwest,1.3,No
2020/01/23,05:00,0.183,0.162,0.276,0.257,0.254,0.142,0.086,west,2.8,No
2020/01/23,05:10,0.183,0.163,0.277,0.259,0.253,0.142,0.087,west,2.6,No
2020/01/23,05:20,0.182,0.164,0.277,0.258,0.255,0.141,0.086,southwest,1.3,No
2020/01/23,05:30,0.183,0.163,0.277,0.258,0.254,0.141,0.087,south-southeast,2.4,No
2020/01/23,05:40,0.183,0.164,0.277,0.258,0.254,0.141,0.087,southeast,3.0,No
2020/01/23,05:50,0.182,0.164,0.278,0.257,0.255,0.140,0.087,south-southeast,3.2,No
2020/01/23,06:00,0.182,0.163,0.277,0.258,0.254,0.141,0.086,south-southeast,2.9,No
2020/01/23,06:10,0.183,0.163,0.277,0.258,0.253,0.140,0.087,south-southeast,4.0,No
2020/01/23,06:20,0.183,0.164,0.278,0.258,0.253,0.141,0.087,south,4.5,No
2020/01/23,06:30,0.182,0.163,0.277,0.257,0.254,0.141,0.087,south,3.7,No
2020/01/23,06:40,0.184,0.163,0.276,0.258,0.253,0.141,0.086,south,3.5,No
2020/01/23,06:50,0.183,0.164,0.277,0.257,0.255,0.141,0.087,south-southeast,3.9,No
2020/01/23,07:00,0.182,0.163,0.276,0.257,0.254,0.141,0.086,south-southeast,3.5,No
2020/01/23,07:10,0.183,0.163,0.276,0.259,0.254,0.141,0.087,south,3.0,No
2020/01/23,07:20,0.183,0.164,0.276,0.257,0.253,0.141,0.087,south-southeast,2.8,No
2020/01/23,07:30,0.183,0.163,0.278,0.257,0.255,0.140,0.086,south-southeast,3.1,No
2020/01/23,07:40,0.183,0.163,0.277,0.259,0.254,0.141,0.086,south,3.2,No
2020/01/23,07:50,0.183,0.163,0.276,0.258,0.254,0.141,0.086,south-southeast,3.2,No
2020/01/23,08:00,0.183,0.164,0.278,0.257,0.255,0.142,0.086,south,3.0,No
2020/01/23,08:10,0.183,0.162,0.276,0.256,0.254,0.142,0.086,south,3.2,No
2020/01/23,08:20,0.182,0.162,0.277,0.258,0.253,0.141,0.086,south,3.2,No
2020/01/23,08:30,0.182,0.164,0.277,0.258,0.253,0.141,0.087,south,2.9,No
2020/01/23,08:40,0.183,0.164,0.277,0.256,0.253,0.140,0.086,south,2.9,No
2020/01/23,08:50,0.183,0.162,0.276,0.258,0.253,0.141,0.087,south,2.9,No
2020/01/23,09:00,0.184,0.163,0.277,0.257,0.255,0.141,0.087,south,3.6,No
2020/01/23,09:10,0.183,0.164,0.276,0.257,0.252,0.141,0.087,south,4.3,No
2020/01/23,09:20,0.184,0.163,0.277,0.257,0.255,0.140,0.087,south,4.9,No
2020/01/23,09:30,0.182,0.164,0.277,0.258,0.255,0.141,0.086,south,4.3,No
2020/01/23,09:40,0.183,0.163,0.277,0.257,0.254,0.140,0.088,south,4.1,No
2020/01/23,09:50,0.183,0.162,0.276,0.259,0.254,0.140,0.087,south,4.1,No
2020/01/23,10:00,0.182,0.163,0.278,0.257,0.253,0.141,0.086,south,2.8,No
2020/01/23,10:10,0.183,0.163,0.276,0.257,0.255,0.141,0.086,south-southwest,2.6,No
2020/01/23,10:20,0.182,0.163,0.276,0.258,0.253,0.140,0.086,south,2.4,No
2020/01/23,10:30,0.182,0.163,0.278,0.257,0.255,0.140,0.086,south,2.1,No
2020/01/23,10:40,0.183,0.163,0.276,0.257,0.253,0.140,0.087,south,3.3,No
2020/01/23,10:50,0.182,0.163,0.277,0.256,0.254,0.141,0.087,south,3.1,No
2020/01/23,11:00,0.183,0.164,0.276,0.256,0.253,0.141,0.086,south-southeast,2.9,No
2020/01/23,11:10,0.182,0.163,0.277,0.257,0.255,0.140,0.087,south-southeast,3.1,No
2020/01/23,11:20,0.183,0.162,0.277,0.257,0.253,0.141,0.086,south-southeast,3.4,No
2020/01/23,11:30,0.182,0.163,0.276,0.258,0.252,0.141,0.087,south-southeast,4.2,No
2020/01/23,11:40,0.183,0.163,0.277,0.256,0.255,0.141,0.087,south-southeast,4.2,No
2020/01/23,11:50,0.182,0.163,0.276,0.259,0.253,0.141,0.086,south-southeast,5.2,No
2020/01/23,12:00,0.184,0.164,0.276,0.256,0.256,0.141,0.087,south,5.1,No
2020/01/23,12:10,0.183,0.163,0.278,0.256,0.253,0.141,0.087,south-southeast,4.4,No
2020/01/23,12:20,0.183,0.164,0.277,0.258,0.254,0.141,0.087,south,4.6,No
2020/01/23,12:30,0.182,0.163,0.277,0.256,0.253,0.140,0.086,south,4.3,Yes
2020/01/23,12:40,0.182,0.163,0.277,0.259,0.254,0.141,0.087,south,3.7,Yes
2020/01/23,12:50,0.184,0.165,0.278,0.258,0.256,0.142,0.087,south,3.4,Yes
2020/01/23,13:00,0.183,0.164,0.278,0.258,0.254,0.141,0.087,south,4.6,Yes
2020/01/23,13:10,0.183,0.166,0.276,0.259,0.255,0.142,0.087,south-southwest,3.6,Yes
2020/01/23,13:20,0.185,0.163,0.278,0.258,0.256,0.142,0.088,south-southwest,2.3,Yes
2020/01/23,13:30,0.184,0.165,0.280,0.260,0.256,0.143,0.089,-,CALM,Yes
2020/01/23,13:40,0.186,0.167,0.279,0.261,0.258,0.145,0.090,west,1.1,Yes
2020/01/23,13:50,0.186,0.166,0.282,0.261,0.258,0.145,0.091,west,1.4,Yes
2020/01/23,14:00,0.187,0.168,0.280,0.262,0.258,0.147,0.092,west-southwest,4.3,Yes
2020/01/23,14:10,0.189,0.167,0.282,0.262,0.258,0.148,0.092,-,CALM,Yes
2020/01/23,14:20,0.188,0.168,0.283,0.261,0.258,0.148,0.093,southeast,1.5,Yes
2020/01/23,14:30,0.189,0.170,0.282,0.263,0.261,0.149,0.093,north-northeast,0.6,Yes
2020/01/23,14:40,0.190,0.170,0.282,0.263,0.259,0.149,0.093,northeast,1.5,Yes
2020/01/23,14:50,0.188,0.170,0.283,0.263,0.259,0.149,0.095,north,2.0,Yes
2020/01/23,15:00,0.189,0.171,0.283,0.264,0.261,0.149,0.095,north-northwest,3.4,Yes
2020/01/23,15:10,0.189,0.171,0.282,0.265,0.259,0.149,0.094,north-northwest,3.2,Yes
2020/01/23,15:20,0.190,0.171,0.283,0.263,0.259,0.149,0.095,north-northwest,3.9,Yes
2020/01/23,15:30,0.190,0.171,0.283,0.263,0.259,0.149,0.095,north-northwest,3.9,Yes
2020/01/23,15:40,0.191,0.173,0.282,0.263,0.259,0.150,0.096,north-northwest,4.3,Yes
2020/01/23,15:50,0.192,0.173,0.282,0.264,0.261,0.151,0.097,north-northwest,3.7,Yes
2020/01/23,16:00,0.191,0.173,0.283,0.264,0.262,0.151,0.098,north-northwest,5.6,Yes
2020/01/23,16:10,0.192,0.174,0.283,0.265,0.262,0.151,0.098,north-northwest,5.7,Yes
2020/01/23,16:20,0.193,0.174,0.283,0.264,0.261,0.151,0.098,north-northwest,6.1,Yes
2020/01/23,16:30,0.192,0.173,0.283,0.263,0.260,0.151,0.097,north-northwest,6.2,Yes
2020/01/23,16:40,0.193,0.173,0.282,0.263,0.261,0.150,0.097,north-northwest,6.2,Yes
2020/01/23,16:50,0.191,0.174,0.283,0.263,0.261,0.152,0.098,north-northwest,6.6,Yes
2020/01/23,17:00,0.191,0.175,0.282,0.264,0.261,0.153,0.098,north-northwest,7.3,Yes
2020/01/23,17:10,0.191,0.174,0.282,0.263,0.262,0.153,0.099,north-northwest,7.3,Yes
2020/01/23,17:20,0.192,0.175,0.283,0.262,0.260,0.152,0.098,north-northwest,7.3,Yes
2020/01/23,17:30,0.192,0.175,0.281,0.263,0.262,0.152,0.098,northwest,7.0,Yes
2020/01/23,17:40,0.192,0.174,0.281,0.263,0.261,0.151,0.097,northwest,6.3,Yes
2020/01/23,17:50,0.191,0.173,0.282,0.261,0.261,0.151,0.097,north-northwest,6.4,Yes
2020/01/23,18:00,0.190,0.172,0.280,0.260,0.259,0.150,0.096,north-northwest,6.2,Yes
2020/01/23,18:10,0.189,0.171,0.279,0.257,0.258,0.147,0.095,north-northwest,6.4,Yes
2020/01/23,18:20,0.188,0.169,0.278,0.258,0.257,0.146,0.094,north-northwest,6.7,Yes
2020/01/23,18:30,0.187,0.170,0.276,0.258,0.257,0.147,0.094,north-northwest,6.0,Yes
2020/01/23,18:40,0.189,0.169,0.278,0.258,0.258,0.147,0.094,northwest,6.4,Yes
2020/01/23,18:50,0.188,0.169,0.278,0.258,0.257,0.146,0.094,north-northwest,7.0,Yes
2020/01/23,19:00,0.186,0.168,0.275,0.258,0.256,0.146,0.093,north-northwest,7.0,Yes
2020/01/23,19:10,0.185,0.168,0.274,0.255,0.256,0.145,0.093,north-northwest,7.0,No
2020/01/23,19:20,0.186,0.166,0.274,0.255,0.255,0.143,0.091,north-northwest,7.4,Yes
2020/01/23,19:30,0.184,0.165,0.274,0.255,0.253,0.143,0.090,northwest,6.8,Yes
2020/01/23,19:40,0.183,0.163,0.272,0.253,0.253,0.140,0.090,northwest,6.7,Yes
2020/01/23,19:50,0.182,0.163,0.272,0.253,0.253,0.141,0.088,northwest,6.5,No
2020/01/23,20:00,0.181,0.163,0.271,0.253,0.252,0.140,0.088,north-northwest,7.0,No
2020/01/23,20:10,0.180,0.163,0.271,0.252,0.252,0.139,0.087,northwest,6.1,No
2020/01/23,20:20,0.180,0.162,0.270,0.251,0.252,0.139,0.086,northwest,6.1,No
2020/01/23,20:30,0.181,0.161,0.271,0.252,0.250,0.139,0.087,northwest,5.1,No
2020/01/23,20:40,0.180,0.160,0.270,0.252,0.251,0.139,0.085,north-northwest,5.6,No
2020/01/23,20:50,0.179,0.161,0.270,0.250,0.249,0.138,0.086,north-northwest,5.2,Yes
2020/01/23,21:00,0.180,0.161,0.269,0.251,0.251,0.139,0.086,north-northwest,4.3,No
2020/01/23,21:10,0.179,0.161,0.270,0.250,0.251,0.138,0.085,north-northwest,5.6,No
2020/01/23,21:20,0.178,0.161,0.270,0.251,0.250,0.138,0.086,north-northwest,5.4,No
2020/01/23,21:30,0.180,0.160,0.270,0.252,0.249,0.138,0.085,north-northwest,6.3,No
2020/01/23,21:40,0.179,0.161,0.270,0.251,0.251,0.137,0.085,north-northwest,7.6,No
2020/01/23,21:50,0.179,0.161,0.270,0.252,0.250,0.137,0.085,north-northwest,7.0,No
2020/01/23,22:00,0.180,0.160,0.271,0.250,0.250,0.138,0.084,north-northwest,7.1,No
2020/01/23,22:10,0.179,0.159,0.271,0.251,0.250,0.138,0.085,northwest,7.0,No
2020/01/23,22:20,0.179,0.161,0.270,0.250,0.250,0.137,0.086,north-northwest,5.8,No
2020/01/23,22:30,0.180,0.161,0.270,0.250,0.250,0.138,0.085,north,5.2,No
2020/01/23,22:40,0.179,0.161,0.271,0.251,0.251,0.137,0.085,north-northwest,5.4,No
2020/01/23,22:50,0.180,0.161,0.271,0.252,0.251,0.137,0.085,north-northwest,5.0,No
2020/01/23,23:00,0.179,0.160,0.270,0.250,0.251,0.138,0.085,north-northwest,4.9,No
2020/01/23,23:10,0.180,0.160,0.271,0.250,0.251,0.138,0.085,north-northwest,4.9,No
2020/01/23,23:20,0.179,0.161,0.271,0.251,0.252,0.138,0.085,north-northwest,4.4,No
2020/01/23,23:30,0.178,0.161,0.270,0.252,0.251,0.138,0.085,north-northwest,4.4,No
2020/01/23,23:40,0.181,0.162,0.271,0.251,0.252,0.138,0.086,north-northwest,3.6,No
2020/01/23,23:50,0.180,0.162,0.272,0.252,0.252,0.138,0.086,north-northwest,3.9,No
